WetterOnline ( https://www.wetteronline.de )

Wetter aktuell Ochey

Aktuelles Wetter: Nancy/Ochey (351m)

6-stündlich | Neueste Meldungen
Ortszeit Temperatur Wetter
Fr, 28.01. 19:00 2.2° C bedeckt
Fr, 28.01. 13:00 2.3° C bedeckt
Fr, 28.01. 7:00 1.6° C Nebel
Fr, 28.01. 1:00 1.5° C bedeckt
Do, 27.01. 19:00 0.2° C Sprühregen
Do, 27.01. 13:00 -1.3° C bedeckt
Do, 27.01. 7:00 -2.4° C bedeckt
Do, 27.01. 1:00 -3.3° C Nebel mit Raueis
Ortszeit Temperatur Wetter
Fr, 28.01. 23:00 1.2° C bedeckt
Fr, 28.01. 22:00 1.3° C bedeckt
Fr, 28.01. 21:00 1.3° C bedeckt
Fr, 28.01. 20:00 1.9° C bedeckt
Fr, 28.01. 19:00 2.2° C bedeckt
Fr, 28.01. 18:00 2.4° C bedeckt
Fr, 28.01. 17:00 2.6° C bedeckt
Ortszeit Relative Feuchte Sichtweite
Fr, 28.01. 19:00 95% 15 km
Fr, 28.01. 13:00 94% 10 km
Fr, 28.01. 7:00 100% 0.2 km
Fr, 28.01. 1:00 99% 3.1 km
Do, 27.01. 19:00 99% 1.9 km
Do, 27.01. 13:00 98% 8 km
Do, 27.01. 7:00 98% 3.6 km
Do, 27.01. 1:00 98% 0.7 km
Ortszeit Relative Feuchte Sichtweite
Fr, 28.01. 23:00 98% 6 km
Fr, 28.01. 22:00 98% 8 km
Fr, 28.01. 21:00 98% 5.0 km
Fr, 28.01. 20:00 96% 12 km
Fr, 28.01. 19:00 95% 15 km
Fr, 28.01. 18:00 93% 20 km
Fr, 28.01. 17:00 93% 23 km
Ortszeit Niederschlagsmenge Niederschlagsart
Fr, 28.01. 19:00 0.0 l/m2 in 12 Std. -
Fr, 28.01. 13:00 0.0 l/m2 in 6 Std. -
Fr, 28.01. 7:00 0.4 l/m2 in 12 Std. -
Fr, 28.01. 1:00 0.4 l/m2 in 6 Std. -
Do, 27.01. 19:00 0.1 l/m2 in 12 Std. -
Do, 27.01. 13:00 0.0 l/m2 in 6 Std. -
Do, 27.01. 7:00 0.0 l/m2 in 12 Std. -
Do, 27.01. 1:00 0.0 l/m2 in 6 Std. -
Ortszeit Niederschlagsmenge Niederschlagsart
Fr, 28.01. 23:00 0.0 l/m2 in 1 Std. -
Fr, 28.01. 22:00 keine Meldung -
Fr, 28.01. 21:00 0.0 l/m2 in 1 Std. -
Fr, 28.01. 20:00 0.0 l/m2 in 1 Std. -
Fr, 28.01. 19:00 keine Meldung -
Fr, 28.01. 18:00 0.0 l/m2 in 1 Std. -
Fr, 28.01. 17:00 0.0 l/m2 in 1 Std. -
Ortszeit Stärke Spitze Richtung
km/h Bft. km/h Grad Sektor
Fr, 28.01. 19:00 9 2 17 270° W
Fr, 28.01. 13:00 9 2 19 260° W
Fr, 28.01. 7:00 9 2 19 250° W
Fr, 28.01. 1:00 17 3 22 230° SW
Do, 27.01. 19:00 17 3 33 210° SW
Do, 27.01. 13:00 19 3 31 220° SW
Do, 27.01. 7:00 11 2 22 220° SW
Do, 27.01. 1:00 9 2 19 300° NW
Ortszeit Stärke Spitze Richtung
km/h Bft. km/h Grad Sektor
Fr, 28.01. 23:00 17 3 26 250° W
Fr, 28.01. 22:00 15 3 20 230° SW
Fr, 28.01. 21:00 13 3 19 210° SW
Fr, 28.01. 20:00 11 2 15 220° SW
Fr, 28.01. 19:00 9 2 17 270° W
Fr, 28.01. 18:00 11 2 19 250° W
Fr, 28.01. 17:00 9 2 19 240° SW
Ortszeit Untergrenze Bedeckung Gattung
total tief tief mittel hoch
Fr, 28.01. 19:00 - 8/8 - - - -
Fr, 28.01. 13:00 - 8/8 - - - -
Fr, 28.01. 7:00 - 8/8 - - - -
Fr, 28.01. 1:00 - 8/8 - - - -
Do, 27.01. 19:00 - 8/8 - - - -
Do, 27.01. 13:00 - 8/8 - - - -
Do, 27.01. 7:00 - 8/8 - - - -
Do, 27.01. 1:00 - 8/8 - - - -
Ortszeit Bedeckungsgrad in Achtel und Wolkenuntergrenze
Fr, 28.01. 23:00 8
Fr, 28.01. 22:00 8
Fr, 28.01. 21:00 8
Fr, 28.01. 20:00 8
Fr, 28.01. 19:00 8
Fr, 28.01. 18:00 8
Fr, 28.01. 17:00 8
Ortszeit Luftdruck NN (hPa) Tendenz (hPa in 3 Std.)
Fr, 28.01. 19:00 1039 + 0,7
Fr, 28.01. 13:00 1039 + 0,2
Fr, 28.01. 7:00 1037 + 1,0
Fr, 28.01. 1:00 1034 + 1,4
Do, 27.01. 19:00 1032 + 0,6
Do, 27.01. 13:00 1033 - 0,8
Do, 27.01. 7:00 1034 - 0,4
Do, 27.01. 1:00 1035 - 0,3
Ortszeit Luftdruck NN (hPa) Tendenz (hPa in 3 Std.)
Fr, 28.01. 23:00 1038 - 0,9
Fr, 28.01. 22:00 1038 - 1,0
Fr, 28.01. 21:00 1039 + 0,1
Fr, 28.01. 20:00 1039 + 0,2
Fr, 28.01. 19:00 1039 + 0,7
Fr, 28.01. 18:00 1039 + 0,1
Fr, 28.01. 17:00 1038 - 0,4
Ortszeit Schneehöhe (cm)
Fr, 28.01. 19:00 -
Fr, 28.01. 13:00 -
Fr, 28.01. 7:00 -
Fr, 28.01. 1:00 -
Do, 27.01. 19:00 -
Do, 27.01. 13:00 -
Do, 27.01. 7:00 -
Do, 27.01. 1:00 -
Ortszeit Schneehöhe (cm)
Fr, 28.01. 23:00 -
Fr, 28.01. 22:00 -
Fr, 28.01. 21:00 -
Fr, 28.01. 20:00 -
Fr, 28.01. 19:00 -
Fr, 28.01. 18:00 -
Fr, 28.01. 17:00 -
Link zu dieser Seite / Seite empfehlen

Das Wetter in ...